ATLAS 5 CENTAUR DEB, 44007

Orbit data source: Space-Track

ATLAS 5 CENTAUR DEB, 44007 is space debris in HEO originally from a launch on Wed, 17 Sep 2014 UTC launched from the Air Force Eastern Test Range (AFETR). Debris objects in space refer to the collection of defunct objects orbiting the Earth. Examples of debris include non-operational satellites, rocket bodies, and fragments generated from explosions, collisions, or faulty payload assembly.

Loading next visibility...
Identifier
44007, 2014-055BN
Orbit
HEO
Country
Flag of USUS
Related business
Flag of USUnited Launch Alliance/Lockheed Martin (US)
Manufacturer
Unknown
Mission
Spacecraft
Bus & Motor
Unknown
Mass
Unknown
Launch date (UTC)
2014-09-17 (11 years ago)
Launch vehicle
Unknown
Launch site
Air Force Eastern Test Range (AFETR)
Object type
Payload
Rocket body
Debris
Shape & HBR
Unknown shape, 1.1 m
Radar Cross Section
Small (<0.1 m²)

Expand to show TLE details & history
Last TLE update: 3 days ago

TLE from 3 days ago
0 ATLAS 5 CENTAUR DEB
1 44007U 14055BN  25284.57644241 -.00000013  00000-0  00000-0 0  9999
2 44007  19.2244 201.4202 4897739  65.2146 337.3189  1.76257302 45254
Epoch: 2025-10-11T13:50Z
TLE epoch observation values (Epoch: 2025-10-11T13:50:04.624Z)
Latitude
0.00004°
Longitude
-26.46691°
Altitude
11,882.299 km
Speed
5.467 km/s
True Right ascension
13h 25m 49s
True Declination
0° 00' 00"
Sunlit
Object was in daylight at epoch
Visualization orbit readout
Latitude
Unknown
Longitude
Unknown
Altitude
Unknown
Speed
Unknown
Apparent Right ascension
Unknown
Apparent Declination
Unknown
Sunlit
N/A
Visualization observer readout
Local Sidereal Time
12:40:48
Azimuth
Unknown
Elevation
Unknown
Doppler factor
Unknown
Orbital elements
Apogee altitude
36,752.569 km
Perigee altitude
8,393.508 km
Semi-major axis
28,951.175 km
Eccentricity
0.48977
Inclination
19.2244°
RAAN
201.4202°
Arg. of periapsis
65.2146°
True anomaly
294.65263°
Mean anomaly
337.3189°
Eccentric anomaly
318.85508°
Mean motion
0.4406 °/min
Orbital period
817.07 mins
BSTAR
0
Loading maneuver chart data...
Computing Atmospheric mass density...

Documentation

Showing up to 5 results
|